EXPRESS-AM8

Last updated on Thu Oct 30 2025 00:02:50 GMT+0000 (Coordinated Universal Time)

1 40895U 15048A 25302.32556361 -.00000101 00000+0 00000+0 0 9998 2 40895 0.0132 251.6665 0000637 219.0586 30.4093 1.00271649 37034
UTC large
Height (km)
Speed (km/s)
/
Latitude / Longitude
Inclination (degrees)
Orbital Period (minutes)
Azimuth
Elevation
Range (km)
Doppler Factor

Next 0 passes for location: London (51.5072 / 0.1276)

Sorry there are no passes over London.